Tracking 27112 objects as of 27-Mar-2023
HD Live streaming from Space Station
objects crossing your sky now

FREGAT R/B

Track FREGAT R/B now!


NORAD ID: 49504
Int'l Code: 2021-113B
Perigee: 1,684.2 km
Apogee: 38,504.1 km
Inclination: 63.8 °
Period: 714.1 minutes
Semi major axis: 26465 km
RCS: Unknown
Launch date: November 25, 2021
Source: Commonwealth of Independent States (former USSR) (CIS)
Launch site: PLESETSK MISSILE AND SPACE COMPLEX (PKMTR)

Note: This is a ROCKET BODY
Your satellite tracking list
Your tracking list is empty




NASA's NSSDC Master Catalog

Two Line Element Set (TLE):
1 49504U 21113B   23083.71596319 -.00000699  00000-0  00000-0 0  9992
2 49504  63.7949 332.4793 6956301 269.4497  17.5071  2.01646743  9760
Source of the keplerian elements: AFSPC